Location: Newark
(5.5500°N, 0.2500°W)
Time: 06:44:24
(UTC+00:00)

Hubble Space Telescope - Pass Details

Date: 22 September 2019
Orbit: 536 x 540 km, 28.5° (Epoch: 17 October)

Event Time Altitude Azimuth Distance (km) Brightness Sun altitude
Rises 19:31:07 0° 227° (SW) 2,670 5.0 -24.2°
Reaches altitude 10° 19:33:28 10° 219° (SW) 1,778 3.8 -24.8°
Enters shadow 19:35:35 25° 200° (SSW) 1,083 2.4 -25.3°
